Temperature
18 16 16 17 17 18 17 17 17 17 18 17 16 16 16 16 16 16 16 16 17 17 18 17 17 17 17 17 17 17 16 16 16 16 16 16 15 15 15 15 15 14 14 14
16 17 18 18 18 18 17 17 17 17 18 17 16 16 16 15 15 16 16 16 17 17 17 17 17 17 17 17 17 16 16 16 16 16 16 16 15 15 15 15 14 14 14 14
18 18 18 18 18 18 18 17 17 17 17 17 17 16 16 15 15 16 16 16 17 17 17 17 17 17 17 17 17 16 16 16 16 16 16 15 15 15 15 14 14 14 14 14
17 18 18 18 18 18 17 18 18 18 16 15 16 15 16 15 15 15 16 16 17 17 17 17 17 17 17 17 16 16 16 16 16 16 15 15 15 15 14 14 14 14 14 14
17 18 18 18 18 18 18 18 17 17 16 15 15 15 15 15 15 15 15 16 16 17 17 17 17 17 17 17 17 16 16 16 16 15 15 15 15 15 14 14 14 14 14 13
17 18 18 18 18 18 17 16 16 14 14 15 15 15 15 14 15 15 15 16 16 17 17 17 17 17 16 16 16 16 16 16 15 15 15 15 15 14 14 14 14 14 14 13
17 18 18 18 18 17 16 15 15 15 14 14 15 15 14 15 15 15 15 16 17 17 17 17 17 16 16 16 16 16 16 16 15 15 15 15 14 14 14 14 14 14 13 13
16 16 17 18 18 17 16 15 15 15 14 14 14 14 15 15 15 16 16 16 16 17 17 17 17 16 16 16 16 16 15 15 15 15 15 14 14 14 14 14 14 14 13 13
15 16 17 18 18 17 16 15 15 13 14 14 14 14 15 15 15 15 15 16 16 17 17 17 17 16 16 16 16 15 15 15 15 15 14 14 14 14 14 14 13 13 13 13
15 16 17 17 17 16 16 14 13 13 14 14 14 14 14 15 15 14 14 15 16 17 17 17 16 16 16 16 16 15 15 15 15 14 14 14 14 14 13 13 13 13 13 13
15 15 16 16 17 16 15 15 13 12 13 13 14 14 15 15 15 14 14 16 16 17 17 17 16 16 16 16 15 15 15 14 14 14 14 14 13 13 13 13 13 13 13 13
14 13 14 15 16 16 16 15 13 14 13 12 12 13 15 14 14 14 15 16 16 16 16 16 16 16 15 15 15 15 15 14 14 14 13 13 13 13 13 13 13 12 12 12
14 13 14 14 15 15 15 15 14 12 11 11 12 14 15 13 14 15 15 15 16 16 16 16 16 15 15 15 15 15 14 14 14 13 13 13 13 13 13 12 12 12 12 12
14 12 13 14 14 14 15 15 13 13 12 12 12 14 15 14 13 14 15 15 15 16 16 15 15 15 15 15 14 14 14 14 13 13 13 13 12 12 12 12 12 12 12 12
13 13 13 13 14 14 14 15 14 13 13 13 13 13 14 14 13 14 14 15 15 15 15 15 15 15 15 14 14 14 13 13 13 13 13 13 12 12 12 12 12 12 12 11
11 13 13 14 14 14 14 14 14 14 13 13 14 13 14 14 14 14 14 14 15 15 15 15 15 15 14 14 14 14 13 13 13 12 12 12 12 12 12 12 12 11 11 11
11 12 12 12 13 14 13 14 14 14 13 13 13 14 13 12 12 13 14 14 15 15 15 15 15 15 14 14 14 13 13 13 12 12 12 12 12 12 12 11 11 11 11 11
10 11 10 11 13 13 14 14 14 14 13 13 13 13 12 13 14 14 15 15 15 15 15 15 14 14 14 14 13 13 13 12 12 12 12 12 12 11 11 11 11 11 11 10
10 10 10 10 11 12 13 13 13 13 13 13 12 12 12 13 13 13 14 14 15 15 15 14 14 14 14 13 13 13 12 12 12 12 11 11 11 11 11 11 11 10 10 10
9 9 9 9 12 12 13 14 14 14 13 13 12 12 11 12 11 12 14 14 14 14 14 14 14 13 13 13 13 12 12 12 11 11 11 11 11 10 10 10 10 10 10 10
10 9 9 9 10 11 12 13 13 13 13 13 13 12 12 11 13 14 14 14 14 14 14 13 13 13 13 12 12 12 12 11 11 11 11 10 10 10 10 10 10 10 9 9
10 9 9 8 10 11 12 12 12 12 14 14 14 13 13 13 13 14 14 13 13 13 13 13 13 13 12 12 12 11 11 11 11 10 10 10 10 10 10 9 9 9 9 9
9 10 9 10 11 12 12 13 14 14 14 14 14 14 13 13 13 13 13 13 13 13 12 12 12 12 12 11 11 11 11 10 10 10 10 10 9 9 9 9 9 9 8 8
8 8 8 8 9 11 13 13 14 14 14 14 14 13 13 13 13 13 13 12 12 12 12 12 12 11 11 11 11 10 10 10 10 10 9 9 9 9 9 9 8 8 8 8
8 7 8 8 9 11 12 13 14 14 14 14 13 13 13 13 13 13 12 12 12 12 11 11 11 11 11 10 10 10 10 9 9 9 9 9 8 8 8 8 8 8 8 7
7 8 8 9 11 10 12 14 13 13 13 13 13 13 12 12 12 12 12 12 11 11 11 11 10 10 10 10 10 9 9 9 9 9 8 8 8 8 8 8 7 7 7 7
Wind_Speed
4 5 1 5 5 4 4 4 2 3 2 2 3 5 5 4 5 5 5 6 6 7 5 3 2 3 3 3 4 4 4 3 3 2 2 2 1 1 1 1 2 3 4 4
5 1 4 2 3 2 3 3 2 2 1 2 2 5 5 4 6 7 8 7 7 6 4 3 3 3 4 3 3 4 4 3 3 3 2 2 2 1 1 1 2 2 2 3
3 4 1 3 3 2 1 4 3 2 2 2 1 5 4 3 3 3 5 5 6 7 7 5 4 4 4 4 4 4 4 4 3 3 3 3 3 3 2 1 0 1 2 2
1 2 1 2 2 4 3 4 4 2 2 2 1 3 6 3 3 5 6 6 7 7 6 6 6 5 5 5 4 4 4 4 4 4 5 5 3 2 2 1 1 0 1 2
2 1 2 2 3 4 3 1 2 2 2 1 1 2 7 2 4 6 6 7 7 6 6 6 6 6 5 5 5 4 4 4 4 4 5 5 3 2 1 1 1 1 0 1
3 2 2 3 1 2 3 5 5 4 3 1 3 3 6 4 6 5 4 5 6 5 4 4 3 3 3 3 4 4 5 4 4 4 4 5 5 3 3 2 1 1 0 0
4 3 2 2 2 3 4 5 3 3 2 5 3 3 8 6 5 5 5 5 5 5 4 4 4 3 3 3 4 4 5 4 4 5 4 4 5 5 4 3 3 2 1 1
0 5 3 1 4 4 3 6 6 4 4 5 2 5 7 5 3 3 3 3 3 4 5 5 5 5 5 4 4 5 5 4 4 5 4 3 4 3 3 3 3 3 2 2
4 5 4 1 1 6 4 3 5 5 1 2 5 6 7 2 2 1 1 2 4 5 5 5 5 5 5 5 5 5 6 5 4 5 4 3 3 3 3 3 2 2 2 2
6 4 3 2 3 3 4 7 5 4 2 3 6 5 5 6 5 3 3 4 5 5 4 4 4 5 5 5 5 5 5 5 4 4 4 3 3 3 3 3 3 3 2 1
4 3 3 2 3 4 3 3 4 4 4 4 4 7 5 6 6 6 6 6 5 5 5 4 4 4 4 3 4 4 4 3 2 3 3 3 2 2 3 3 3 3 2 2
3 4 3 5 4 3 4 5 6 4 4 4 3 8 5 5 5 5 5 4 3 3 4 4 4 4 4 4 3 4 4 4 3 3 3 3 2 2 2 2 2 2 2 2
4 4 1 5 4 1 2 3 4 5 4 5 4 8 4 4 2 3 4 4 3 2 2 3 3 4 4 4 4 4 4 4 4 4 3 3 2 2 2 3 2 2 2 2
4 4 6 8 7 4 4 4 5 6 4 6 8 10 9 6 5 5 4 4 3 3 3 3 3 4 4 4 4 4 4 3 3 4 4 3 3 3 3 2 2 2 3 2
4 4 5 7 6 4 5 6 7 8 8 8 9 10 12 8 7 5 4 3 3 3 3 4 5 4 4 4 4 4 3 3 3 4 4 4 3 3 2 2 3 2 2 2
2 3 2 4 4 4 6 8 8 9 7 8 7 10 8 4 1 1 2 4 4 5 5 5 5 5 6 6 5 5 4 3 3 4 4 4 3 3 3 3 3 2 2 1
3 4 2 4 4 3 7 7 7 6 5 6 8 8 2 1 3 4 4 4 4 5 6 6 6 7 7 6 6 6 5 3 3 3 3 3 3 3 3 3 2 3 2 2
5 4 3 1 1 6 7 2 4 5 6 5 5 4 3 5 4 3 2 3 3 3 4 5 5 5 4 4 4 4 4 4 3 3 3 3 3 3 3 3 3 3 2 2
4 6 3 3 3 7 7 4 3 5 6 4 5 4 2 1 3 3 2 2 4 4 4 4 4 4 3 4 4 4 4 3 3 3 3 3 3 4 4 4 4 3 2 2
3 4 4 3 3 6 6 4 1 2 4 3 3 3 2 3 1 4 3 2 2 1 1 2 2 3 3 3 4 5 4 4 4 4 3 3 3 4 5 5 4 2 3 3
2 2 4 4 5 7 6 3 3 3 5 3 2 3 4 5 5 4 2 1 1 1 0 2 3 3 3 3 4 4 4 4 4 3 2 2 3 4 4 3 3 3 3 2
6 5 5 4 4 7 3 3 4 6 3 2 3 4 4 4 3 1 1 1 1 1 0 2 3 2 2 3 4 4 4 4 3 3 2 2 3 3 3 3 3 3 3 2
6 7 6 8 8 5 3 6 5 3 3 4 4 4 4 3 2 2 1 1 1 2 1 1 3 2 1 2 4 4 4 2 2 2 2 3 2 2 3 4 4 3 3 3
4 2 3 5 7 6 6 5 5 4 5 5 4 4 4 3 3 2 2 2 2 2 2 2 3 2 1 2 2 3 2 2 3 3 3 3 2 2 2 3 3 3 3 3
6 4 3 5 7 6 6 6 6 4 4 3 2 3 4 4 3 3 3 3 3 2 1 2 3 3 3 2 2 2 2 2 3 3 3 2 2 2 2 2 2 3 4 4
5 6 6 7 7 5 7 6 4 4 4 3 2 2 2 4 5 4 4 3 3 3 2 2 2 3 3 3 2 2 2 3 3 3 3 2 2 2 2 2 1 3 3 4
Wind_Direction
38 71 172 216 195 185 168 167 220 258 254 156 214 259 265 219 208 214 219 222 227 235 242 228 196 158 132 132 141 145 142 149 135 123 128 123 128 107 78 62 87 106 111 114
43 315 248 204 161 149 159 156 235 298 323 170 241 278 275 218 216 216 216 221 227 238 245 221 186 159 154 153 155 156 159 158 164 155 146 138 133 125 121 67 59 83 108 122
169 250 228 127 131 134 200 181 199 221 5 34 17 321 298 269 229 224 222 223 224 227 229 219 202 187 168 168 175 174 173 162 160 146 115 99 77 60 52 46 41 24 99 110
249 274 120 113 175 158 234 223 185 162 109 297 81 281 287 273 263 241 236 230 231 234 229 216 205 196 190 193 179 169 160 156 154 145 141 138 142 155 190 195 206 205 97 115
263 248 137 191 230 181 207 92 124 131 145 353 1 199 283 294 263 254 242 233 234 231 220 212 207 202 197 187 173 167 151 152 152 147 151 149 149 165 149 131 132 139 134 125
250 261 190 203 219 147 126 72 57 51 75 293 245 193 276 247 233 248 244 237 229 217 207 197 189 176 175 167 161 154 148 149 149 154 154 161 163 159 146 144 153 162 157 176
332 322 310 146 92 41 83 90 34 355 355 256 262 212 251 255 236 226 237 241 221 196 184 178 171 169 172 166 163 160 154 160 162 162 169 176 174 169 173 179 182 177 182 212
224 293 282 210 170 174 160 141 158 201 230 278 298 238 254 268 265 232 228 228 204 191 187 186 186 183 184 175 164 163 165 170 171 174 184 186 177 178 190 190 185 188 200 213
184 254 293 266 168 139 135 157 161 138 173 272 276 284 299 292 317 280 245 216 209 204 195 191 186 183 182 179 175 176 174 171 177 182 182 184 184 183 191 190 185 189 196 197
167 232 292 313 72 37 141 144 109 127 168 261 289 278 257 265 262 259 246 234 227 209 199 194 188 187 186 184 177 171 171 178 180 178 181 179 185 187 183 175 185 195 194 182
154 179 303 359 181 192 116 118 120 130 160 175 266 273 233 236 232 233 237 236 225 210 202 197 198 192 180 159 153 160 162 156 159 170 171 165 174 171 166 178 199 197 184 181
146 136 243 262 263 213 184 176 156 165 216 186 208 268 283 267 241 222 234 241 228 213 199 191 186 175 164 159 154 158 163 165 176 172 160 164 165 158 167 191 207 192 188 196
141 127 15 334 339 332 199 181 171 146 139 173 199 263 304 329 289 251 230 227 213 206 181 168 164 172 174 170 165 165 170 179 175 161 154 153 158 173 188 196 191 182 182 186
127 145 185 215 229 221 234 211 182 159 183 217 229 259 289 289 273 263 246 221 205 199 183 174 180 188 184 175 173 177 186 185 173 164 163 172 187 196 202 198 183 183 182 182
120 185 218 239 248 236 233 232 205 204 207 213 240 246 263 259 248 245 232 219 195 190 195 195 190 192 188 182 183 186 191 189 174 170 175 192 194 183 177 187 191 188 185 192
114 182 209 260 259 253 259 251 229 228 224 229 249 260 261 263 220 230 218 200 198 202 207 202 195 190 193 193 191 192 197 196 176 181 196 194 178 173 184 192 180 175 186 193
158 150 167 261 292 314 269 246 225 228 221 204 229 249 256 234 217 213 216 211 211 211 210 208 205 201 201 198 190 192 198 183 176 194 202 193 181 186 201 197 173 185 194 184
157 144 153 223 43 242 248 251 219 229 246 227 245 264 228 228 229 218 199 196 225 220 213 216 211 208 203 191 183 177 170 170 180 192 201 200 189 197 200 191 197 203 193 193
167 149 143 153 228 274 291 277 206 211 264 238 231 255 257 353 27 340 293 223 226 225 215 210 207 199 183 181 174 160 165 172 180 196 208 209 205 201 194 199 207 202 183 193
84 117 135 153 199 243 259 288 264 149 270 284 221 228 196 106 137 265 268 246 256 262 223 176 156 141 161 183 165 159 172 178 201 209 211 211 207 204 201 206 205 195 185 198
115 116 162 186 223 257 262 285 100 156 259 290 218 214 185 195 221 241 225 228 245 245 172 140 145 156 177 173 159 168 181 204 216 205 194 203 209 210 201 197 196 181 179 174
182 179 191 173 212 254 258 127 173 227 270 269 237 219 209 232 256 251 218 210 181 126 82 156 158 165 168 160 159 176 211 219 196 183 191 208 213 208 189 172 181 179 172 170
201 194 192 195 218 241 215 209 232 223 247 251 239 241 212 213 237 241 236 211 187 181 188 174 159 153 159 169 168 192 229 216 190 183 208 221 221 212 183 174 180 183 181 187
251 193 182 242 260 255 254 256 264 246 247 253 238 222 191 205 221 225 214 202 197 209 196 169 145 152 192 201 196 211 221 197 183 198 222 220 210 217 199 187 184 188 199 204
223 182 202 248 270 290 277 251 255 269 273 263 249 212 196 195 217 212 204 198 194 207 209 167 169 185 207 206 219 224 193 181 197 214 221 223 212 208 203 198 204 206 214 213
205 192 195 233 236 223 256 258 253 259 259 246 229 242 225 198 203 200 197 197 187 186 187 180 190 199 206 200 226 240 203 187 197 222 222 214 209 210 202 194 259 266 251 253
Height
1503 1508 1513 1512 1511 1512 1515 1519 1521 1518 1513 1515 1517 1517 1514 1514 1515 1515 1515 1516 1516 1517 1519 1520 1521 1522 1523 1523 1524 1525 1526 1527 1528 1528 1529 1530 1531 1532 1532 1533 1533 1534 1534 1535
1509 1512 1507 1506 1508 1511 1514 1519 1520 1516 1513 1515 1517 1516 1512 1512 1512 1512 1512 1513 1514 1515 1517 1518 1519 1520 1521 1522 1523 1524 1525 1526 1527 1528 1529 1530 1531 1532 1532 1533 1533 1534 1534 1535
1510 1509 1505 1506 1510 1513 1515 1518 1518 1518 1515 1515 1517 1519 1514 1511 1510 1510 1511 1511 1512 1513 1514 1515 1517 1518 1519 1520 1522 1523 1525 1526 1527 1528 1529 1530 1531 1531 1532 1532 1533 1533 1534 1534
1508 1505 1505 1507 1510 1511 1517 1511 1512 1515 1522 1527 1523 1532 1517 1512 1510 1508 1508 1509 1509 1511 1511 1513 1514 1515 1517 1518 1520 1522 1523 1525 1526 1527 1528 1528 1529 1530 1530 1531 1532 1532 1533 1533
1508 1505 1506 1509 1508 1508 1511 1509 1512 1515 1521 1528 1526 1531 1522 1512 1510 1507 1505 1505 1506 1507 1508 1510 1511 1513 1515 1517 1519 1521 1522 1523 1524 1525 1527 1528 1528 1529 1530 1530 1531 1531 1532 1532
1506 1503 1504 1505 1504 1506 1508 1512 1517 1522 1527 1535 1527 1531 1525 1514 1507 1503 1502 1502 1503 1504 1506 1507 1509 1511 1513 1515 1517 1519 1520 1522 1523 1524 1525 1526 1527 1528 1528 1529 1529 1530 1530 1531
1510 1505 1503 1503 1506 1508 1510 1522 1535 1535 1540 1537 1526 1527 1521 1504 1501 1500 1500 1500 1500 1502 1503 1505 1507 1509 1511 1513 1515 1516 1518 1519 1521 1522 1523 1525 1526 1526 1527 1527 1528 1528 1529 1529
1518 1518 1505 1503 1505 1510 1513 1519 1535 1542 1542 1537 1527 1526 1512 1500 1498 1498 1498 1498 1499 1500 1501 1503 1505 1507 1509 1511 1513 1514 1516 1517 1519 1520 1522 1523 1524 1524 1525 1526 1526 1527 1527 1528
1518 1517 1504 1502 1502 1506 1513 1519 1520 1533 1535 1538 1531 1520 1507 1498 1497 1497 1497 1497 1497 1498 1500 1501 1503 1505 1507 1509 1510 1512 1514 1515 1517 1518 1519 1520 1521 1522 1523 1524 1524 1525 1526 1526
1509 1515 1507 1503 1503 1505 1508 1514 1525 1532 1539 1540 1530 1523 1515 1502 1499 1497 1496 1496 1496 1497 1498 1500 1501 1503 1505 1507 1509 1510 1512 1513 1515 1516 1517 1518 1519 1520 1521 1521 1522 1523 1524 1524
1506 1514 1511 1507 1507 1509 1512 1516 1521 1530 1532 1539 1537 1524 1501 1498 1495 1495 1494 1494 1494 1495 1497 1498 1500 1502 1504 1505 1507 1509 1510 1512 1513 1514 1515 1516 1517 1518 1518 1519 1520 1520 1521 1522
1506 1514 1518 1511 1505 1503 1505 1509 1518 1527 1530 1534 1535 1523 1494 1493 1491 1492 1492 1492 1493 1495 1496 1497 1499 1500 1502 1503 1505 1507 1508 1510 1511 1512 1513 1514 1514 1515 1516 1516 1517 1518 1519 1520
1505 1514 1522 1518 1515 1508 1506 1507 1511 1517 1526 1533 1532 1517 1493 1492 1490 1490 1490 1491 1492 1493 1495 1496 1497 1499 1500 1502 1503 1505 1507 1508 1509 1510 1510 1511 1512 1513 1513 1514 1515 1516 1516 1517
1501 1510 1516 1518 1514 1508 1507 1506 1508 1514 1522 1525 1520 1508 1495 1492 1490 1489 1489 1490 1490 1492 1493 1494 1495 1497 1499 1500 1502 1503 1505 1506 1507 1507 1508 1509 1509 1510 1511 1512 1513 1513 1514 1514
1500 1508 1507 1506 1503 1503 1503 1502 1504 1507 1508 1513 1506 1503 1493 1489 1488 1487 1487 1488 1489 1490 1491 1492 1493 1495 1497 1498 1500 1501 1502 1503 1504 1505 1505 1506 1507 1508 1508 1509 1510 1511 1511 1512
1501 1505 1505 1504 1502 1502 1502 1499 1499 1500 1500 1501 1498 1496 1486 1485 1486 1485 1486 1486 1487 1488 1489 1491 1492 1493 1495 1496 1497 1499 1500 1501 1502 1502 1503 1503 1504 1505 1506 1506 1507 1508 1508 1509
1503 1506 1508 1510 1504 1501 1503 1495 1494 1494 1492 1493 1495 1490 1485 1485 1484 1483 1483 1484 1484 1485 1487 1489 1490 1491 1493 1494 1495 1496 1497 1498 1499 1500 1500 1501 1501 1502 1502 1503 1504 1504 1505 1506
1501 1505 1510 1511 1507 1509 1496 1487 1487 1488 1487 1487 1485 1483 1482 1481 1480 1481 1482 1482 1483 1484 1485 1486 1488 1489 1490 1491 1492 1494 1495 1496 1496 1497 1497 1498 1498 1499 1499 1500 1501 1501 1501 1502
1496 1502 1510 1513 1512 1505 1492 1485 1485 1487 1485 1482 1482 1481 1481 1481 1481 1481 1481 1482 1482 1483 1484 1484 1485 1486 1487 1488 1490 1491 1492 1493 1494 1494 1494 1494 1495 1496 1496 1496 1497 1497 1498 1498
1496 1498 1507 1512 1509 1506 1491 1482 1480 1483 1486 1479 1479 1479 1480 1480 1485 1481 1480 1480 1481 1482 1482 1483 1483 1484 1485 1486 1487 1488 1489 1490 1490 1491 1491 1492 1492 1492 1493 1493 1493 1494 1494 1494
1500 1503 1506 1509 1507 1498 1485 1481 1480 1491 1487 1478 1477 1477 1478 1478 1478 1478 1478 1478 1479 1480 1480 1481 1482 1482 1483 1484 1485 1485 1486 1487 1488 1488 1489 1489 1489 1489 1489 1489 1490 1490 1490 1490
1496 1501 1504 1506 1506 1498 1480 1480 1483 1482 1477 1475 1475 1474 1474 1474 1475 1475 1475 1476 1477 1478 1478 1479 1480 1480 1481 1482 1482 1482 1483 1484 1485 1485 1485 1486 1485 1485 1485 1486 1486 1486 1486 1486
1490 1489 1491 1491 1488 1479 1477 1476 1475 1475 1474 1473 1473 1472 1472 1472 1472 1472 1473 1474 1475 1476 1476 1477 1477 1478 1479 1479 1480 1480 1480 1481 1481 1481 1482 1482 1482 1482 1482 1482 1482 1482 1482 1482
1485 1483 1484 1485 1478 1474 1473 1473 1472 1472 1471 1471 1470 1469 1469 1469 1470 1470 1471 1472 1473 1474 1474 1475 1475 1475 1476 1476 1477 1477 1478 1478 1478 1478 1478 1478 1478 1478 1478 1478 1478 1478 1478 1478
1479 1480 1481 1480 1474 1471 1468 1469 1469 1468 1468 1467 1467 1467 1467 1467 1468 1468 1469 1470 1470 1471 1472 1472 1473 1473 1473 1474 1474 1475 1475 1475 1475 1475 1475 1474 1474 1474 1474 1474 1474 1474 1475 1475
1473 1474 1476 1474 1468 1469 1466 1466 1466 1465 1464 1464 1464 1464 1464 1465 1465 1466 1466 1467 1468 1469 1469 1470 1470 1470 1471 1471 1471 1472 1472 1472 1471 1471 1471 1471 1471 1470 1470 1470 1470 1470 1471 1471